Terminal Aerodrome Forecast
Issued by NWS Sioux Falls, SD

Home | Current Version | Previous Version | Graphics & Text | Print | Product List | Glossary On
Versions: 1 2 3 4 5 6 7 8 9 10 11 12 13 14 15 16 17 18 19
000
FTUS43 KFSD 291120
TAFFSD
TAF
KFSD 291120Z 2912/3012 VRB02KT 4SM BR SKC
      TEMPO 2912/2914 1SM BR SCT003
     FM291700 18007KT P6SM SKC
     FM300000 17005KT P6SM SKC
     FM300900 17005KT 4SM BR SKC=

USA.gov is the U.S. government's official web portal to all federal, state and local government web resources and services.